Home   Weather   Eskilstuna   Past weeks

Flag for Sweden Past Weather in Eskilstuna, Sweden — Yesterday and Last 2 Weeks

Now
66 °F

Sunny.


Feels Like: 66 °F
Forecast: 50 / 64 °F
Wind: 12 mph from Southwest

Location: Vasteras / Hasslo

Current Time: Sep 25, 2016 at 4:11:11 PM

Latest Report: Sep 25, 2016 at 3:20 PM


Visibility: 10 mi

Pressure: 30.15 "Hg

Humidity: 52%

Dew Point: 48 °F

Location of EskilstunaLocation

Past Weather in Eskilstuna — Graph

°F

Eskilstuna Temperature Yesterday

Maximum temperature yesterday: 59 °F (at 5:50 PM)
Minimum temperature yesterday: 45 °F (at 5:20 AM)
Average temperature yesterday: 53 °F

High & Low Weather Summary for the Past Weeks

 TemperatureHumidityPressure
High73 °F (Sep 10, 3:20 PM)100% (Sep 11, 3:50 AM)30.27 "Hg (Sep 11, 3:50 AM)
Low37 °F (Sep 19, 4:50 AM)35% (Sep 12, 4:50 PM)29.86 "Hg (Sep 11, 10:50 AM)
Average56 °F76%30.13 "Hg
* Reported Sep 10 2:20 PM — Sep 25 2:50 PM, Eskilstuna, Weather by CustomWeather, © 2016

Note: Actual official high and low records may vary slightly from our data, if they occured in-between our weather recording intervals... More about our weather records

Advertising

Eskilstuna Weather History for the Previous 24 Hours

Scroll right to see more
 ConditionsComfort  
Time TempWeatherWind HumidityBarometerVisibility
2:50 PM
Sun, Sep 25
66 °FPassing clouds.12 mph56%30.15 "HgN/A
2:20 PM66 °FPassing clouds.12 mph56%30.15 "HgN/A
1:50 PM64 °FPassing clouds.10 mph64%30.18 "HgN/A
1:20 PM64 °FSunny.10 mph64%30.18 "Hg10 mi
12:50 PM64 °FSunny.13 mph64%30.18 "Hg10 mi
12:20 PM64 °FSunny.12 mph68%30.18 "Hg10 mi
11:50 AM61 °FSunny.10 mph77%30.18 "Hg10 mi
11:20 AM61 °FSunny.9 mph77%30.18 "Hg10 mi
10:50 AM61 °FClear.7 mph77%30.15 "HgN/A
10:20 AM59 °FClear.8 mph77%30.18 "HgN/A
9:50 AM57 °FClear.8 mph82%30.18 "HgN/A
9:20 AM57 °FCool.7 mph82%30.18 "HgN/A
8:50 AM55 °FCool.8 mph82%30.15 "HgN/A
8:20 AM57 °FCool.8 mph77%30.15 "HgN/A
7:50 AM54 °FCool.8 mph88%30.15 "HgN/A
7:20 AM52 °FCool.8 mph88%30.15 "HgN/A
6:50 AM50 °FCool.7 mph94%30.15 "HgN/A
6:20 AM54 °FCool.8 mph82%30.15 "HgN/A
5:50 AM54 °FCool.9 mph88%30.15 "HgN/A
5:20 AM54 °FCool.7 mph88%30.15 "HgN/A
4:50 AM54 °FCool.7 mph88%30.15 "HgN/A
4:20 AM54 °FCool.7 mph88%30.15 "HgN/A
3:50 AM54 °FCool.8 mph88%30.15 "HgN/A
3:20 AM52 °FCool.7 mph88%30.15 "HgN/A
2:50 AM52 °FCool.7 mph82%30.15 "HgN/A
2:20 AM52 °FCool.7 mph82%30.15 "HgN/A
1:50 AM52 °FCool.6 mph82%30.12 "HgN/A
1:20 AM52 °FCool.5 mph82%30.12 "HgN/A
12:50 AM54 °FCool.7 mph82%30.12 "HgN/A
12:20 AM55 °FCool.8 mph77%30.12 "HgN/A
11:50 PM
Sat, Sep 24
54 °FCool.9 mph82%30.12 "HgN/A
11:20 PM54 °FCool.8 mph77%30.12 "HgN/A
10:50 PM52 °FCool.7 mph82%30.12 "HgN/A
10:20 PM50 °FCool.5 mph88%30.12 "HgN/A
9:50 PM50 °FCool.3 mph88%30.12 "HgN/A
9:20 PM50 °FCool.2 mph88%30.12 "HgN/A
8:50 PM54 °FCool.3 mph82%30.12 "HgN/A
8:20 PM55 °FCool.5 mph77%30.12 "HgN/A
7:50 PM55 °FCool.6 mph77%30.12 "HgN/A
7:20 PM55 °FCool.6 mph77%30.12 "HgN/A
6:50 PM57 °FCool.7 mph72%30.12 "HgN/A
6:20 PM57 °FCool.8 mph72%30.12 "HgN/A
5:50 PM59 °FPassing clouds.9 mph68%30.12 "HgN/A
5:20 PM57 °FBroken clouds.10 mph72%30.12 "HgN/A
4:50 PM57 °FPartly sunny.7 mph72%30.12 "HgN/A
4:20 PM57 °FPartly sunny.7 mph72%30.12 "HgN/A
Weather by CustomWeather, © 2016

See weather overviewHow to use our weather pages